Timeline UpdatesTrip UpdatesNews PostsPvt Posts♥♥Travel TipsAdmin PostsConv PostsFollowed PostsChat RequestsBlog PostsPNR Posts

Disclaimer
Search
 
 
Thu Nov 27, 2014 22:44:47 ISTHomeTrainsΣChainsAtlasPNRForumGalleryNewsFAQTripsMembersLoginFeedback
PNR Super Search

Ticket PNR Status Inquiry - PNR: 611-xxxxxxx (E-Ticket)

OLD STATUS

Status Last Updated on: Jun 17 2012 (1:44PM) IST

Date of Journey: Sun Jun 17, 2012   Class: Sleeper - SL   (Total Seats available for this Class/Quota: Avbl 136)
Passenger 1: Can/Mod (Booking Status: W/L 72,CK)
Chart NOT Prepared

Howrah-Yesvantpur SF Express/12863

Travel Time: 33h 8m    31 halts    Distance: 1937 km    Avg Speed: 58 km/hr
Type: SuperFast
Zone: SER/South Eastern
Departs @ 20:35 (Avg 1m late)
Platform# 22
SMTWTFS
Kolkata Howrah Junction/HWH 
Arrives @ 05:43 +2 nights (Avg 33m late)
Platform# 3
SMTWTFS
Krishnarajapuram/KJM 

31 halts. 323 intermediate Stations between Kolkata Howrah Junction and Krishnarajapuram

Show ALL intermediate Stations  Show Old Time-Table

#TrkCodeStation NameX/OArrivesAvgDepartsAvgHaltPFDay#KmSpeedElevZoneAddress
1/==/HWHKolkata Howrah Junction (23)»  -20:35+12210.06110mERHowrah 711101, West Bengal
2/==/MCAMecheda (6)  21:33 21:32+921:35 21:34+82m4158.26710mSERdist - purba Medinipur, West Bengal
3/==/KGPKharagpur Junction (10)X  22:25+422:30+45m31115.08342mSERDist: West Medinipur, West Bengal
4/==/BLSBalasore (4)  23:55 23:54+623:57 23:56+62m11231.16019mSERBalasore, Odisha
5/==/BHCBhadrak (4)XO  00:55 00:58+400:57 01:00+62m--2293.69323mECoRBhadrak, Odisha
6/==/JJKRJajpur Keonjhar Road (4)  01:24 01:28+1401:26 01:29+152 1m--2337.28536mECoRJajpur, Odisha
7%==/CTCCuttack Junction (5)  02:20+2102:25+225m--2409.24828mECoRCuttack, Odisha
8/==/BBSBhubaneswar (4)O  03:05 03:00+2303:10 03:05+235m42437.13240mECoRBhubaneshwar, Odisha
9/==/KURKhurda Road Junction (7)X  03:40+1403:50+1510m--2456.08025mECoRKhordha, Odisha
10/==/BALUBalugaon (3)  04:39 04:43+1604:41 04:45+162m--2527.19111mECoR752030, Odisha
11/==/BAMBrahmapur (3)X  05:32 05:35+2305:42 05:45+2010m--2603.24827mECoRBerhampur, Odisha
12/==/PSAPalasa (3)X  07:18+307:20+32m22677.58331mECoRKasibugga, Andhra Pradesh
13/==/CHESrikakulam Road (4)  08:13+708:15+122m32750.57034mECoRsrikakulam road ph .no. 08942-287222, Andhra Pradesh
14/==/VZMVizianagaram Junction (5)X  09:15+1009:20+145m12820.04663mECoRVizianagaram, Andhra Pradesh
15/==/VSKPVisakhapatnam Junction (8)X10:40+1211:00+1620m12881.27411mECoRVishakhapatnam 530001, Andhra Pradesh
16/==/SLOSamalkot Junction (3)  13:01+3013:03 13:02+312 1m321030.85718mSCRSamalkot, Andhra Pradesh
17/==/RJYRajahmundry (3)  13:55+2613:57+282m121081.07923mSCRRajahmundry ph.no. 0883-2420541, Andhra Pradesh
18/==/TDDTadepalligudem (3)14:30 14:29+4014:31 14:30+411m--21123.19018mSCRTadepalligudem, Andhra Pradesh
19/==/EEEluru (3)  15:02+4615:03+471m321170.93519mSCREluru Ph.no. 08812 226401., Andhra Pradesh
20/==/BZAVijayawada Junction (10)XO  16:45+1817:00+2015m121230.27824mSCRVijayawada 520001, Andhra Pradesh
21/==/TELTenali Junction (5)  17:29 17:24+3217:30 17:25+331m321261.57516mSCRTel: 08644-227834, Andhra Pradesh
22/==/BPPBapatla (3)X  18:00 17:59+4018:01 18:00+411m--21304.18210mSCRBapatla, Andhra Pradesh
23/==/CLXChirala (4)  18:11+4018:12+411m--21319.2678mSCRChirala, Andhra Pradesh
24/==/OGLOngole (3)X  18:56+3918:57+401m321368.59312mSCROngole, Andhra Pradesh
25/==/NLRNellore (4)X  20:12+2720:13+271m321485.32721mSCRNellore, Andhra Pradesh
26/==/GDRGudur Junction (3)X  21:53 21:38+1721:55 21:40+172m121523.86719mSCRGudur, Andhra Pradesh
27/==/RURenigunta Junction (5)X  23:05 22:55+3323:15 23:05+3310m--21607.140113mSCRChittoor District, Andhra Pradesh
28/==/TPTYTirupati Main (5)X  23:40 23:20+4023:45 23:25+425m521617.043150mSCRChittoor Distt, Andhra Pradesh
29/--/KPDKatpadi Junction (5)X  02:05 01:50+2202:10 01:52+325 2m431722.049213mSRVellore 632007, Tamil Nadu
30/==/JTJJolarpettai Junction (5)  03:35+903:40+115m--31805.883405mSRJolarpettai, Tamil Nadu
31/==/KPNKuppam (2)  04:13 04:09+3404:15 04:10+352 1m--31846.254688mSWRKuppam, Andhra Pradesh
32/==/BWTBangarapet Junction (6)  04:53 04:48+2904:55 04:50+302m431880.264815mSWRBangarapet, Karnataka
33/==/KJMKrishnarajapuram (4)•05:53 05:43+3305:55 05:45+352m331936.710909mSWRBengaluru-560016, Karnataka
34/--/BANDBanaswadi (2)O  06:23+2106:25+222m--31942.918912mSWRBangalore, Karnataka
35%==/YPRYesvantpur Junction (6)  07:15+12-631957.7-919mSWRBengaluru 560022, Karnataka
Scroll to Top
Scroll to Bottom